This is the latest recevied weather packets stored in our database for station/object N6ABM. If no packets are shown the sender has not sent any weather packets the latest 10 day(s).
| Time | Temp. | Humidity | Pressure | Rain* | Wind** | Luminosity | Snow |
|---|---|---|---|---|---|---|---|
| 1778001617 | 26.67° C | 27% | 1012.8 hPa | 0 mm | - | - | - |
| 1778001317 | 26.67° C | 26% | 1012.8 hPa | 0 mm | - | - | - |
| 1778001017 | 26.11° C | 26% | 1012.8 hPa | 0 mm | - | - | - |
| 1778000717 | 26.11° C | 26% | 1012.8 hPa | 0 mm | - | - | - |
| 1778000417 | 25.56° C | 25% | 1012.9 hPa | 0 mm | - | - | - |
| 1778000116 | 25° C | 26% | 1012.9 hPa | 0 mm | - | - | - |
| 1777999817 | 24.44° C | 26% | 1012.9 hPa | 0 mm | - | - | - |
| 1777999517 | 23.89° C | 27% | 1012.9 hPa | 0 mm | - | - | - |
| 1777999216 | 23.33° C | 29% | 1012.9 hPa | 0 mm | - | - | - |
| 1777998917 | 23.33° C | 32% | 1012.9 hPa | 0 mm | - | - | - |
| 1777998617 | 23.33° C | 32% | 1012.9 hPa | 0 mm | - | - | - |
| 1777998317 | 23.33° C | 32% | 1012.9 hPa | 0 mm | - | - | - |
| 1777998016 | 23.33° C | 29% | 1012.9 hPa | 0 mm | - | - | - |
| 1777997717 | 22.22° C | 30% | 1012.9 hPa | 0 mm | - | - | - |
| 1777997417 | 22.22° C | 34% | 1012.9 hPa | 0 mm | - | - | - |
| 1777997116 | 22.22° C | 34% | 1012.9 hPa | 0 mm | - | - | - |
| 1777996817 | 22.22° C | 34% | 1012.9 hPa | 0 mm | - | - | - |
| 1777996517 | 22.22° C | 33% | 1012.9 hPa | 0 mm | - | - | - |
| 1777996217 | 21.67° C | 33% | 1012.9 hPa | 0 mm | - | - | - |
| 1777995917 | 21.11° C | 34% | 1013 hPa | 0 mm | - | - | - |
| 1777995617 | 21.11° C | 37% | 1013 hPa | 0 mm | - | - | - |
| 1777995316 | 20.56° C | 40% | 1013 hPa | 0 mm | - | - | - |
| 1777995017 | 20.56° C | 39% | 1013 hPa | 0 mm | - | - | - |
| 1777994717 | 20.56° C | 40% | 1012.9 hPa | 0 mm | - | - | - |
| 1777994417 | 20.56° C | 40% | 1012.9 hPa | 0 mm | - | - | - |
* Rain latest hour (hover to see other rain measurements)
** Current wind speed in m/s (hover to see current wind gust speed)